Impacts TAF Board
For situational awareness. Not to be used for flight planning purposes.
IDs:

KMCO - Orlando Intl, FL, US

Issued at 0530 UTC 20 Oct 2018
Updated at 0709 UTC 20 Oct 2018
Potential Impact None Slight Moderate High
Time0653Z 20/08Z 20/09Z 20/10Z 20/11Z 20/12Z 20/13Z 20/14Z 20/15Z 20/16Z 20/17Z 20/18Z 20/19Z 20/20Z>>
Type OBS PRVL PRVL PRVL PRVL PRVL PRVL PRVL PRVL PRVL PRVL PRVL PRVL PRVL
VIS 10 >6 >6 >6 >6 >6 >6 >6 >6 >6 >6 >6 >6 >6
CIG -- -- -- -- -- -- -- -- -- -- -- -- -- 100
Cover FEW SCT SCT SCT SCT SCT SCT SCT SCT SCT SCT SCT SCT BKN
FltCat VFR VFR VFR VFR VFR VFR VFR VFR VFR VFR VFR VFR VFR VFR
WX -- -- -- -- -- -- -- -- -- -- -- -- -- VCSH
WDir 350 30 30 30 30 30 30 250 250 250 250 250 250 310
WSpd 3 3 3 3 3 3 3 5 5 5 5 5 5 6
WGst -- -- -- -- -- -- -- -- -- -- -- -- -- --
Raw TAF
KMCO 200530Z 2006/2112 03003KT P6SM FEW025 SCT080
  FM201400 25005KT P6SM SCT040
  FM202000 31006KT P6SM VCSH SCT040 BKN100
  FM210300 28004KT P6SM SCT050 BKN250


Raw METAR
KMCO 200653Z 35003KT 10SM FEW020 FEW075 23/22 A3008 RMK AO2 SLP183 T02330222
KMCO 200553Z 01003KT 10SM FEW020 FEW075 23/23 A3009 RMK AO2 SLP189 T02330228 10250 20233 58008
KMCO 200453Z 36004KT 10SM FEW020 SCT075 23/23 A3011 RMK AO2 SLP194 T02330228 403110228

METAR Board
Radar Display
Forecast Discussion
For situational awareness. Not to be used for flight planning purposes.